Location: Kott?ru
(16.6209°N, 80.6208°E)
Time: 14:03:31
(UTC+00:00)

Cosmos 1300 Rocket - Pass Details

Date: 18 September 2020
Orbit: 601 x 627 km, 82.5° (Epoch: 29 October)

Event Time Altitude Azimuth Distance (km) Brightness Sun altitude
Rises 13:17:08 0° 160° (SSE) 2,857 6.7 -10.5°
Reaches altitude 10° 13:19:38 10° 147° (SSE) 1,959 5.8 -11.1°
Maximum altitude 13:23:13 26° 91° (E) 1,225 4.5 -11.9°
Drops below altitude 10° 13:26:50 10° 35° (NE) 1,976 5.9 -12.8°
Sets 13:29:21 0° 23° (NNE) 2,887 6.8 -13.4°
